QPF
0.00 0.00 0.00 0.00 0.00 0.00 0.00 0.00 0.00 0.00 0.00 0.00 0.00 0.00 0.00 0.00 0.00 0.00 0.00 0.00 0.00 0.00 0.00 0.00 0.00 0.00 0.00 0.00 0.02 0.02 0.02 0.02 0.01 0.00 0.00 0.00 0.00 0.00 0.00 0.01 0.00 0.01 0.01
0.00 0.00 0.00 0.00 0.00 0.00 0.00 0.00 0.00 0.00 0.00 0.00 0.00 0.00 0.00 0.00 0.00 0.00 0.00 0.00 0.00 0.00 0.00 0.00 0.00 0.00 0.00 0.00 0.01 0.03 0.03 0.02 0.00 0.00 0.02 0.04 0.03 0.02 0.02 0.02 0.02 0.01 0.01
0.00 0.00 0.00 0.00 0.00 0.00 0.00 0.00 0.00 0.00 0.00 0.00 0.00 0.00 0.00 0.00 0.00 0.00 0.00 0.00 0.00 0.00 0.00 0.00 0.00 0.00 0.00 0.00 0.00 0.00 0.00 0.00 0.00 0.01 0.03 0.04 0.02 0.00 0.00 0.00 0.00 0.00 0.00
0.00 0.00 0.00 0.00 0.00 0.00 0.00 0.00 0.00 0.00 0.00 0.00 0.00 0.00 0.00 0.00 0.00 0.00 0.00 0.00 0.00 0.00 0.00 0.00 0.00 0.00 0.00 0.00 0.00 0.00 0.00 0.00 0.00 0.00 0.03 0.05 0.01 0.00 0.00 0.00 0.00 0.00 0.00
0.00 0.00 0.00 0.00 0.00 0.00 0.00 0.00 0.00 0.00 0.00 0.00 0.00 0.00 0.00 0.00 0.00 0.00 0.00 0.00 0.00 0.00 0.00 0.00 0.00 0.00 0.00 0.00 0.00 0.00 0.00 0.00 0.00 0.00 0.02 0.03 0.02 0.00 0.00 0.01 0.01 0.00 0.01
0.00 0.00 0.00 0.00 0.00 0.00 0.00 0.00 0.00 0.00 0.00 0.00 0.00 0.00 0.00 0.00 0.00 0.00 0.00 0.00 0.00 0.00 0.00 0.00 0.00 0.00 0.00 0.00 0.00 0.00 0.00 0.00 0.00 0.00 0.00 0.00 0.01 0.02 0.00 0.01 0.00 0.01 0.01
0.00 0.00 0.00 0.00 0.00 0.00 0.00 0.00 0.00 0.00 0.00 0.00 0.00 0.00 0.00 0.00 0.00 0.00 0.00 0.00 0.00 0.00 0.00 0.00 0.00 0.00 0.00 0.00 0.00 0.00 0.00 0.00 0.00 0.00 0.00 0.00 0.02 0.02 0.00 0.00 0.00 0.00 0.00
0.00 0.00 0.00 0.00 0.00 0.00 0.00 0.00 0.00 0.00 0.00 0.00 0.00 0.00 0.00 0.00 0.00 0.00 0.00 0.00 0.00 0.00 0.00 0.00 0.00 0.00 0.00 0.00 0.00 0.00 0.00 0.00 0.00 0.00 0.00 0.00 0.00 0.00 0.00 0.00 0.00 0.00 0.00
0.00 0.00 0.00 0.00 0.00 0.00 0.00 0.00 0.00 0.00 0.00 0.00 0.00 0.00 0.00 0.00 0.00 0.00 0.00 0.00 0.00 0.00 0.00 0.00 0.00 0.00 0.00 0.00 0.00 0.00 0.00 0.00 0.00 0.00 0.00 0.01 0.01 0.00 0.00 0.00 0.00 0.00 0.00
0.00 0.00 0.00 0.00 0.00 0.00 0.00 0.00 0.00 0.00 0.00 0.00 0.00 0.00 0.00 0.00 0.00 0.00 0.00 0.00 0.00 0.00 0.00 0.00 0.00 0.00 0.00 0.00 0.00 0.00 0.00 0.00 0.00 0.00 0.00 0.00 0.01 0.00 0.00 0.00 0.00 0.00 0.00
0.00 0.00 0.00 0.00 0.00 0.00 0.00 0.00 0.00 0.00 0.00 0.00 0.00 0.00 0.00 0.00 0.00 0.00 0.00 0.00 0.00 0.00 0.00 0.00 0.00 0.00 0.00 0.00 0.00 0.00 0.00 0.00 0.00 0.00 0.00 0.00 0.00 0.00 0.00 0.00 0.00 0.00 0.00
0.00 0.00 0.00 0.00 0.00 0.00 0.00 0.00 0.00 0.00 0.00 0.00 0.00 0.00 0.00 0.00 0.00 0.00 0.00 0.00 0.00 0.00 0.00 0.00 0.00 0.00 0.00 0.00 0.00 0.00 0.00 0.00 0.00 0.00 0.00 0.00 0.00 0.00 0.00 0.00 0.00 0.00 0.00
0.00 0.00 0.00 0.00 0.00 0.00 0.00 0.00 0.00 0.00 0.00 0.00 0.00 0.00 0.00 0.00 0.00 0.00 0.00 0.00 0.00 0.00 0.00 0.00 0.00 0.00 0.00 0.00 0.00 0.00 0.00 0.00 0.00 0.00 0.00 0.00 0.00 0.00 0.00 0.00 0.00 0.00 0.00
0.00 0.00 0.00 0.00 0.00 0.00 0.00 0.00 0.00 0.00 0.00 0.00 0.00 0.00 0.00 0.00 0.00 0.00 0.00 0.00 0.00 0.00 0.00 0.00 0.00 0.00 0.00 0.00 0.00 0.00 0.00 0.00 0.00 0.00 0.00 0.00 0.00 0.00 0.00 0.00 0.00 0.00 0.00
0.00 0.00 0.00 0.00 0.00 0.00 0.00 0.00 0.00 0.00 0.00 0.00 0.00 0.00 0.00 0.00 0.00 0.00 0.00 0.00 0.00 0.00 0.00 0.00 0.00 0.00 0.00 0.00 0.00 0.00 0.00 0.00 0.00 0.00 0.00 0.00 0.00 0.00 0.00 0.00 0.00 0.00 0.00
0.00 0.00 0.00 0.00 0.00 0.00 0.00 0.00 0.00 0.00 0.00 0.00 0.00 0.00 0.00 0.00 0.00 0.00 0.00 0.00 0.00 0.00 0.00 0.00 0.00 0.00 0.00 0.00 0.00 0.00 0.00 0.00 0.00 0.00 0.00 0.00 0.00 0.00 0.00 0.00 0.00 0.00 0.00
0.00 0.00 0.00 0.00 0.00 0.00 0.00 0.00 0.00 0.00 0.00 0.00 0.00 0.00 0.00 0.00 0.00 0.00 0.00 0.00 0.00 0.00 0.00 0.00 0.00 0.00 0.00 0.00 0.00 0.00 0.00 0.00 0.00 0.00 0.00 0.00 0.00 0.00 0.00 0.00 0.00 0.00 0.00
0.00 0.00 0.00 0.00 0.00 0.00 0.00 0.00 0.00 0.00 0.00 0.00 0.00 0.00 0.00 0.00 0.00 0.00 0.00 0.00 0.00 0.00 0.00 0.00 0.00 0.00 0.00 0.00 0.00 0.00 0.00 0.00 0.00 0.00 0.00 0.00 0.00 0.00 0.00 0.00 0.00 0.00 0.00
0.00 0.00 0.00 0.00 0.00 0.00 0.00 0.00 0.00 0.00 0.00 0.00 0.00 0.00 0.00 0.00 0.00 0.00 0.00 0.00 0.00 0.00 0.00 0.00 0.00 0.00 0.00 0.00 0.00 0.00 0.00 0.00 0.00 0.00 0.00 0.00 0.00 0.00 0.00 0.00 0.00 0.00 0.00
0.00 0.00 0.00 0.00 0.00 0.00 0.00 0.00 0.00 0.00 0.00 0.00 0.00 0.00 0.00 0.00 0.00 0.00 0.00 0.00 0.00 0.00 0.00 0.00 0.00 0.00 0.00 0.00 0.00 0.00 0.00 0.00 0.00 0.00 0.00 0.00 0.00 0.00 0.00 0.00 0.00 0.00 0.00
0.00 0.00 0.00 0.00 0.00 0.00 0.00 0.00 0.00 0.00 0.00 0.00 0.00 0.00 0.00 0.00 0.00 0.00 0.00 0.00 0.00 0.00 0.00 0.00 0.00 0.00 0.00 0.00 0.00 0.00 0.00 0.00 0.00 0.00 0.00 0.00 0.00 0.00 0.00 0.00 0.00 0.00 0.00
0.00 0.00 0.00 0.00 0.00 0.00 0.00 0.00 0.00 0.00 0.00 0.00 0.00 0.00 0.00 0.00 0.00 0.00 0.00 0.00 0.00 0.00 0.00 0.00 0.00 0.00 0.00 0.00 0.00 0.00 0.00 0.00 0.00 0.00 0.00 0.00 0.00 0.00 0.00 0.00 0.00 0.00 0.00
0.00 0.00 0.00 0.00 0.00 0.00 0.00 0.00 0.00 0.00 0.00 0.00 0.00 0.00 0.00 0.00 0.00 0.00 0.00 0.00 0.00 0.00 0.00 0.00 0.00 0.00 0.00 0.00 0.00 0.00 0.00 0.00 0.00 0.00 0.00 0.00 0.00 0.00 0.00 0.00 0.00 0.00 0.00
0.00 0.00 0.00 0.00 0.00 0.00 0.00 0.00 0.00 0.00 0.00 0.00 0.00 0.00 0.00 0.00 0.00 0.00 0.00 0.00 0.00 0.00 0.00 0.00 0.00 0.00 0.00 0.00 0.00 0.00 0.00 0.00 0.00 0.00 0.00 0.00 0.00 0.00 0.00 0.00 0.00 0.00 0.00
0.00 0.00 0.00 0.00 0.00 0.00 0.00 0.00 0.00 0.00 0.00 0.00 0.00 0.00 0.00 0.00 0.00 0.00 0.00 0.00 0.00 0.00 0.00 0.00 0.00 0.00 0.00 0.00 0.00 0.00 0.00 0.00 0.00 0.00 0.00 0.00 0.00 0.00 0.00 0.00 0.00 0.00 0.00
0.00 0.00 0.00 0.00 0.00 0.00 0.00 0.00 0.00 0.00 0.00 0.00 0.00 0.00 0.00 0.00 0.00 0.00 0.00 0.00 0.00 0.00 0.00 0.00 0.00 0.00 0.00 0.00 0.00 0.00 0.00 0.00 0.00 0.00 0.00 0.00 0.00 0.00 0.00 0.00 0.00 0.00 0.00
MSLP
1022.67 1022.87 1022.86 1022.72 1022.59 1022.49 1022.30 1021.94 1021.67 1021.34 1020.98 1020.63 1020.34 1020.11 1019.75 1019.55 1019.36 1019.10 1018.93 1018.70 1018.32 1018.07 1017.98 1017.94 1017.79 1017.68 1017.42 1017.07 1016.83 1016.75 1016.64 1016.46 1016.26 1016.02 1015.74 1015.52 1015.41 1015.28 1015.17 1015.01 1014.84 1014.59 1014.55
1022.73 1022.86 1022.79 1022.73 1022.64 1022.60 1022.32 1022.06 1021.83 1021.49 1021.11 1020.82 1020.40 1020.17 1019.90 1019.67 1019.40 1019.22 1019.15 1018.99 1018.80 1018.54 1018.38 1018.25 1018.18 1017.97 1017.70 1017.27 1016.99 1016.88 1016.72 1016.57 1016.30 1016.05 1015.85 1015.57 1015.48 1015.37 1015.15 1014.94 1014.76 1014.55 1014.40
1022.78 1022.81 1022.76 1022.74 1022.70 1022.61 1022.34 1022.04 1021.68 1021.35 1020.97 1020.74 1020.51 1020.28 1019.96 1019.81 1019.38 1019.44 1019.48 1019.46 1019.27 1019.12 1018.84 1018.60 1018.41 1018.29 1017.96 1017.57 1017.28 1017.08 1016.97 1016.83 1016.50 1016.31 1016.02 1015.82 1015.59 1015.33 1015.16 1014.91 1014.78 1014.55 1014.41
1022.74 1022.69 1022.69 1022.73 1022.74 1022.53 1022.26 1022.11 1021.92 1021.43 1021.17 1020.97 1020.66 1020.47 1020.12 1019.91 1019.59 1019.49 1019.65 1019.66 1019.59 1019.42 1019.30 1019.14 1018.84 1018.52 1018.24 1017.91 1017.53 1017.24 1017.12 1016.93 1016.76 1016.53 1016.23 1015.99 1015.72 1015.43 1015.19 1014.99 1014.88 1014.67 1014.31
1022.74 1022.74 1022.73 1022.75 1022.67 1022.42 1022.36 1022.24 1021.95 1021.82 1021.46 1021.13 1020.79 1020.51 1020.27 1019.97 1019.92 1019.74 1019.68 1019.74 1019.73 1019.62 1019.49 1019.35 1019.16 1018.90 1018.55 1018.15 1017.77 1017.47 1017.34 1017.10 1016.87 1016.61 1016.39 1016.01 1015.69 1015.41 1015.19 1015.13 1014.92 1014.56 1014.18
1022.74 1022.72 1022.62 1022.64 1022.63 1022.48 1022.37 1022.25 1022.10 1021.97 1021.85 1021.57 1021.12 1020.70 1020.49 1020.11 1019.92 1019.88 1019.73 1019.71 1019.74 1019.74 1019.56 1019.34 1019.14 1018.89 1018.72 1018.28 1017.94 1017.66 1017.55 1017.35 1017.01 1016.64 1016.37 1015.96 1015.80 1015.55 1015.17 1015.02 1014.83 1014.48 1014.07
1022.65 1022.60 1022.52 1022.59 1022.61 1022.52 1022.47 1022.38 1022.26 1022.17 1021.83 1021.68 1021.14 1020.60 1020.46 1020.28 1020.12 1020.16 1020.10 1019.93 1019.74 1019.79 1019.66 1019.41 1019.24 1019.13 1018.78 1018.54 1018.12 1017.82 1017.69 1017.51 1017.07 1016.74 1016.46 1016.17 1015.79 1015.52 1015.24 1014.96 1014.82 1014.49 1014.05
1022.64 1022.60 1022.55 1022.50 1022.58 1022.46 1022.37 1022.41 1022.39 1022.20 1022.03 1022.04 1021.77 1021.52 1020.74 1020.17 1020.05 1020.09 1020.07 1019.93 1019.89 1019.81 1019.52 1019.36 1019.18 1019.05 1018.84 1018.50 1018.21 1017.95 1017.65 1017.53 1017.18 1016.74 1016.45 1016.08 1015.82 1015.64 1015.39 1015.05 1014.80 1014.46 1014.11
1022.71 1022.66 1022.59 1022.56 1022.53 1022.44 1022.31 1022.36 1022.35 1022.29 1022.13 1022.02 1022.06 1021.98 1021.26 1020.88 1020.66 1020.05 1019.96 1019.75 1019.63 1019.63 1019.42 1019.32 1019.08 1018.92 1018.65 1018.34 1018.17 1018.03 1017.85 1017.53 1017.14 1016.78 1016.39 1016.06 1015.75 1015.63 1015.46 1015.21 1014.87 1014.51 1014.22
1022.78 1022.73 1022.70 1022.69 1022.59 1022.52 1022.39 1022.31 1022.23 1022.30 1022.40 1022.12 1021.92 1021.95 1021.79 1021.66 1021.22 1020.31 1019.77 1019.58 1019.58 1019.41 1019.22 1018.93 1018.75 1018.53 1018.52 1018.34 1018.18 1018.06 1017.90 1017.66 1017.28 1016.89 1016.47 1016.01 1015.78 1015.67 1015.43 1015.20 1014.97 1014.62 1014.29
1022.87 1022.86 1022.89 1022.85 1022.74 1022.64 1022.52 1022.42 1022.29 1022.27 1022.39 1022.34 1022.18 1022.03 1021.83 1021.65 1021.66 1021.44 1020.06 1019.62 1019.52 1019.10 1018.90 1018.62 1018.47 1018.19 1018.08 1018.09 1018.09 1017.99 1017.86 1017.60 1017.30 1017.03 1016.60 1016.02 1015.85 1015.79 1015.70 1015.32 1015.02 1014.74 1014.32
1022.96 1023.06 1023.16 1023.05 1022.93 1022.76 1022.59 1022.40 1022.24 1022.15 1022.11 1022.14 1022.09 1022.08 1021.84 1021.58 1021.17 1021.23 1020.65 1019.82 1019.41 1018.85 1018.66 1018.21 1018.03 1017.91 1017.78 1017.64 1017.63 1017.85 1017.80 1017.57 1017.27 1016.92 1016.54 1016.13 1015.73 1015.90 1015.83 1015.52 1015.11 1014.79 1014.29
1023.26 1023.24 1023.26 1023.12 1022.96 1022.85 1022.63 1022.41 1022.20 1022.05 1021.97 1021.97 1021.84 1021.68 1021.63 1021.37 1021.21 1021.02 1020.79 1020.14 1019.50 1018.55 1018.29 1017.95 1017.56 1017.51 1017.56 1017.56 1017.47 1017.43 1017.35 1017.29 1017.12 1016.84 1016.41 1016.02 1015.84 1015.89 1015.81 1015.55 1015.18 1014.84 1014.37
1023.51 1023.43 1023.29 1023.18 1022.98 1022.75 1022.49 1022.29 1022.08 1021.85 1021.69 1021.70 1021.58 1021.42 1021.25 1021.07 1021.04 1020.90 1020.73 1020.26 1019.42 1018.78 1017.96 1017.47 1017.25 1017.08 1017.03 1016.96 1016.98 1017.09 1016.90 1016.84 1016.68 1016.50 1016.26 1016.00 1015.86 1015.79 1015.61 1015.45 1015.21 1014.87 1014.41
1023.42 1023.31 1023.25 1023.15 1022.97 1022.75 1022.59 1022.41 1022.15 1021.93 1021.82 1021.63 1021.36 1021.03 1020.83 1020.59 1020.54 1020.49 1020.39 1020.23 1019.91 1018.90 1017.71 1016.88 1016.93 1016.74 1016.73 1016.64 1016.45 1016.45 1016.38 1016.33 1016.23 1015.95 1015.75 1015.65 1015.63 1015.61 1015.57 1015.31 1015.09 1014.90 1014.52
1023.43 1023.35 1023.22 1023.12 1022.96 1022.76 1022.53 1022.30 1022.05 1021.85 1021.64 1021.40 1021.18 1020.89 1020.71 1020.43 1020.18 1020.08 1019.98 1019.72 1019.53 1019.09 1018.17 1017.08 1016.79 1016.66 1016.36 1016.37 1016.22 1016.14 1015.89 1015.85 1015.69 1015.56 1015.35 1015.18 1015.02 1015.05 1015.17 1015.20 1015.09 1014.85 1014.58
1023.54 1023.46 1023.34 1023.14 1022.89 1022.60 1022.34 1022.14 1021.89 1021.56 1021.22 1020.86 1020.62 1020.45 1020.16 1020.15 1019.89 1019.73 1019.55 1019.38 1019.04 1018.73 1017.96 1017.16 1016.46 1016.28 1016.06 1015.91 1015.62 1015.44 1015.33 1015.17 1015.00 1014.95 1014.87 1014.71 1014.58 1014.47 1014.47 1014.66 1014.78 1014.85 1014.68
1023.53 1023.46 1023.29 1023.01 1022.77 1022.55 1022.29 1022.06 1021.72 1021.39 1021.06 1020.60 1020.28 1020.12 1019.74 1019.53 1019.33 1019.19 1019.10 1018.78 1018.49 1018.15 1017.75 1016.82 1016.26 1015.83 1015.49 1015.39 1015.28 1015.09 1014.88 1014.64 1014.45 1014.38 1014.26 1014.14 1014.05 1013.97 1013.94 1013.98 1014.18 1014.44 1014.58
1023.32 1023.22 1023.17 1022.98 1022.76 1022.52 1022.20 1021.83 1021.49 1021.01 1020.65 1020.35 1020.03 1019.70 1019.29 1019.10 1018.77 1018.47 1018.37 1018.23 1018.08 1017.83 1017.35 1016.85 1016.06 1015.60 1015.28 1015.16 1014.80 1014.62 1014.30 1014.12 1013.97 1013.76 1013.74 1013.69 1013.49 1013.37 1013.27 1013.30 1013.45 1013.72 1014.09
1023.28 1023.12 1022.97 1022.82 1022.57 1022.20 1021.75 1021.35 1021.00 1020.67 1020.33 1019.92 1019.57 1019.30 1018.97 1018.69 1018.29 1017.97 1017.82 1017.50 1017.23 1017.00 1016.73 1016.52 1015.97 1015.48 1015.11 1014.80 1014.73 1014.27 1013.83 1013.73 1013.42 1013.38 1013.24 1013.19 1013.05 1012.97 1012.92 1012.90 1013.06 1013.10 1013.34
1023.32 1023.15 1022.90 1022.52 1022.19 1021.88 1021.38 1020.93 1020.49 1020.10 1019.70 1019.23 1018.85 1018.54 1018.29 1017.97 1017.62 1017.41 1017.14 1016.63 1016.57 1016.38 1016.11 1015.77 1015.32 1015.22 1014.98 1014.77 1014.48 1013.96 1013.76 1013.34 1013.19 1013.10 1012.82 1012.57 1012.60 1012.52 1012.51 1012.42 1012.42 1012.83 1012.97
1023.04 1022.87 1022.55 1022.26 1021.96 1021.48 1020.95 1020.57 1020.20 1019.74 1019.37 1018.95 1018.47 1018.03 1017.65 1017.34 1016.95 1016.78 1016.53 1016.29 1016.21 1015.82 1015.46 1015.15 1014.75 1014.32 1013.98 1013.64 1013.82 1013.72 1013.61 1013.49 1012.97 1012.97 1012.98 1012.23 1012.31 1012.11 1012.02 1012.23 1012.34 1012.35 1012.50
1023.00 1022.71 1022.34 1021.95 1021.52 1021.07 1020.53 1020.02 1019.56 1019.09 1018.71 1018.28 1017.90 1017.46 1016.96 1016.60 1016.51 1016.30 1016.00 1015.77 1015.56 1015.32 1015.10 1014.74 1014.03 1013.68 1013.34 1013.34 1013.17 1013.38 1013.41 1013.32 1013.03 1012.92 1013.11 1012.29 1012.10 1011.57 1011.39 1011.73 1011.90 1012.03 1012.03
1022.71 1022.32 1021.88 1021.43 1021.01 1020.47 1019.92 1019.49 1019.03 1018.59 1018.20 1017.72 1017.23 1016.90 1016.56 1016.05 1015.81 1015.73 1015.45 1015.23 1014.93 1014.78 1014.68 1014.58 1014.12 1013.76 1013.42 1013.04 1012.92 1012.94 1012.85 1012.91 1012.80 1012.93 1012.90 1012.61 1011.88 1011.46 1011.29 1011.22 1011.57 1011.57 1011.57
1022.29 1021.84 1021.47 1021.01 1020.62 1019.94 1019.43 1019.03 1018.64 1018.08 1017.56 1017.08 1016.63 1016.16 1015.83 1015.39 1015.14 1015.06 1014.80 1014.47 1014.19 1014.02 1013.90 1013.85 1013.63 1013.32 1013.03 1012.59 1012.48 1012.43 1012.51 1012.69 1012.38 1012.23 1012.38 1012.34 1012.01 1011.55 1011.39 1011.15 1011.24 1011.39 1011.32
1021.84 1021.45 1020.90 1020.48 1019.94 1019.39 1018.82 1018.39 1018.00 1017.50 1017.00 1016.33 1015.84 1015.57 1015.22 1015.04 1014.67 1014.35 1014.05 1013.75 1013.43 1013.22 1013.24 1013.08 1012.97 1012.76 1012.54 1012.32 1011.92 1011.99 1011.83 1011.75 1011.88 1011.73 1011.34 1011.87 1011.74 1011.74 1011.46 1011.32 1011.33 1011.28 1011.16
Thickness
5677 5675 5673 5672 5671 5670 5669 5669 5668 5668 5667 5666 5663 5659 5656 5652 5650 5648 5643 5641 5639 5636 5633 5629 5627 5625 5623 5620 5617 5614 5612 5610 5607 5604 5595 5589 5596 5606 5612 5616 5618 5620 5620
5673 5671 5670 5668 5667 5666 5665 5664 5663 5662 5661 5659 5658 5654 5650 5648 5646 5643 5637 5634 5632 5629 5626 5623 5620 5618 5616 5615 5612 5609 5606 5604 5602 5598 5594 5592 5596 5602 5607 5610 5613 5615 5617
5668 5667 5666 5664 5663 5661 5660 5659 5658 5657 5656 5654 5651 5647 5646 5643 5642 5637 5631 5626 5623 5620 5618 5616 5614 5612 5611 5610 5607 5604 5601 5598 5596 5594 5594 5594 5596 5601 5604 5607 5608 5610 5612
5664 5663 5661 5659 5658 5657 5656 5653 5651 5652 5650 5647 5644 5641 5640 5638 5636 5633 5626 5621 5617 5614 5611 5608 5608 5607 5605 5604 5603 5601 5598 5596 5593 5592 5592 5592 5594 5596 5599 5602 5603 5605 5608
5658 5657 5656 5654 5653 5652 5649 5647 5646 5644 5642 5641 5639 5637 5635 5633 5630 5627 5622 5617 5612 5609 5606 5604 5602 5602 5600 5600 5600 5599 5597 5595 5594 5592 5591 5592 5594 5596 5597 5598 5600 5604 5607
5652 5651 5651 5649 5647 5645 5643 5641 5639 5636 5633 5631 5631 5631 5629 5628 5625 5621 5618 5614 5608 5604 5602 5600 5598 5597 5597 5596 5596 5596 5594 5593 5593 5592 5591 5593 5592 5593 5596 5597 5599 5602 5606
5647 5646 5645 5643 5640 5638 5635 5633 5631 5628 5627 5624 5626 5628 5624 5621 5619 5614 5610 5608 5605 5599 5596 5596 5594 5592 5591 5591 5593 5593 5591 5590 5591 5591 5590 5590 5592 5592 5594 5595 5597 5600 5604
5640 5638 5637 5635 5633 5632 5630 5626 5623 5622 5620 5616 5616 5612 5618 5619 5614 5610 5606 5604 5600 5596 5595 5592 5591 5588 5587 5587 5587 5588 5589 5588 5588 5589 5589 5590 5591 5591 5591 5594 5595 5598 5602
5632 5630 5629 5627 5625 5624 5623 5619 5616 5614 5614 5610 5606 5606 5610 5609 5603 5605 5602 5601 5598 5594 5591 5589 5588 5587 5586 5585 5585 5584 5583 5584 5586 5587 5588 5589 5590 5590 5590 5591 5593 5597 5599
5623 5621 5620 5618 5616 5614 5614 5611 5609 5606 5602 5602 5599 5595 5593 5593 5595 5601 5599 5597 5594 5592 5589 5588 5586 5585 5583 5583 5581 5580 5579 5579 5580 5582 5585 5587 5588 5588 5588 5590 5592 5594 5597
5614 5612 5609 5607 5606 5604 5603 5602 5601 5598 5593 5590 5588 5587 5585 5584 5582 5583 5591 5591 5588 5589 5588 5586 5584 5584 5582 5578 5577 5576 5575 5575 5576 5576 5579 5582 5583 5583 5584 5586 5588 5590 5593
5603 5601 5598 5597 5596 5595 5594 5593 5590 5588 5585 5581 5580 5577 5577 5579 5581 5577 5580 5584 5583 5583 5581 5584 5583 5579 5578 5577 5574 5571 5570 5570 5570 5572 5574 5576 5579 5577 5577 5580 5583 5585 5588
5592 5590 5588 5587 5585 5584 5582 5581 5579 5577 5575 5572 5571 5571 5569 5569 5569 5568 5569 5572 5574 5580 5577 5575 5577 5577 5573 5570 5569 5568 5566 5564 5564 5566 5568 5570 5571 5571 5571 5573 5576 5578 5582
5580 5578 5577 5575 5573 5572 5571 5569 5568 5567 5566 5564 5562 5561 5560 5560 5558 5557 5558 5560 5565 5568 5572 5571 5566 5568 5568 5566 5564 5562 5561 5561 5560 5560 5561 5562 5564 5564 5565 5566 5568 5571 5575
5569 5568 5565 5563 5561 5560 5558 5557 5557 5556 5553 5552 5552 5552 5551 5551 5549 5547 5546 5546 5548 5555 5563 5566 5561 5557 5557 5558 5558 5557 5556 5556 5555 5556 5556 5556 5556 5556 5556 5558 5560 5562 5565
5557 5555 5552 5550 5548 5547 5546 5545 5545 5543 5542 5541 5540 5539 5538 5538 5537 5536 5535 5535 5535 5538 5546 5550 5550 5547 5545 5546 5547 5548 5548 5548 5549 5549 5549 5550 5550 5549 5548 5548 5549 5551 5554
5543 5540 5538 5536 5535 5534 5534 5532 5531 5531 5531 5531 5530 5528 5527 5525 5523 5522 5521 5520 5521 5523 5529 5536 5537 5536 5534 5534 5536 5538 5539 5540 5539 5540 5541 5542 5542 5543 5543 5541 5540 5541 5543
5529 5526 5524 5523 5521 5519 5517 5517 5517 5515 5515 5515 5514 5512 5511 5511 5508 5506 5504 5504 5505 5506 5512 5522 5522 5523 5524 5520 5521 5524 5526 5529 5530 5530 5531 5531 5532 5533 5534 5534 5533 5532 5532
5516 5512 5509 5506 5504 5502 5500 5500 5500 5500 5498 5497 5496 5495 5495 5494 5494 5493 5491 5489 5486 5487 5491 5498 5506 5505 5507 5506 5507 5509 5513 5515 5517 5519 5520 5520 5522 5523 5525 5524 5525 5524 5522
5499 5495 5491 5488 5485 5483 5481 5480 5479 5478 5477 5477 5475 5473 5473 5472 5474 5474 5472 5472 5471 5471 5472 5473 5480 5484 5486 5486 5488 5492 5497 5498 5503 5504 5506 5506 5509 5510 5512 5514 5514 5515 5515
5481 5477 5473 5470 5467 5464 5463 5462 5462 5461 5460 5460 5458 5455 5453 5452 5452 5451 5451 5453 5449 5449 5450 5452 5459 5459 5461 5461 5465 5473 5474 5479 5484 5486 5489 5493 5494 5497 5499 5502 5505 5503 5504
5464 5459 5456 5453 5448 5445 5443 5440 5439 5440 5437 5436 5436 5434 5430 5429 5429 5427 5426 5427 5424 5424 5426 5428 5433 5439 5445 5447 5444 5448 5451 5454 5464 5463 5467 5477 5478 5482 5485 5486 5489 5493 5493
5444 5439 5435 5430 5428 5423 5419 5417 5415 5415 5414 5412 5409 5407 5406 5403 5398 5397 5397 5398 5398 5399 5401 5405 5413 5417 5421 5421 5424 5423 5425 5430 5436 5441 5442 5455 5457 5465 5471 5472 5475 5477 5482
5423 5418 5414 5408 5404 5400 5393 5388 5385 5384 5382 5381 5377 5375 5373 5374 5370 5365 5366 5367 5368 5367 5366 5370 5379 5385 5390 5396 5398 5401 5405 5408 5413 5413 5418 5429 5436 5443 5450 5456 5459 5463 5467
5400 5395 5389 5384 5377 5378 5367 5359 5353 5352 5351 5351 5348 5345 5340 5340 5340 5336 5337 5339 5340 5340 5336 5337 5344 5351 5357 5364 5367 5373 5379 5382 5393 5397 5397 5406 5412 5421 5427 5436 5441 5445 5450
5376 5369 5367 5359 5353 5346 5340 5330 5323 5318 5318 5322 5324 5318 5313 5309 5314 5314 5314 5316 5319 5322 5321 5322 5324 5329 5333 5338 5344 5348 5355 5362 5367 5375 5381 5384 5389 5396 5407 5411 5418 5425 5432